DateTimeUTC,F1_A11,F1_S11,BsB_S11,BsG_S11,BsR_S11,BbsB_S11,BbsG_S11,BbsR_S11,BaB_A11,BaG_A11,BaR_A11,Tu_S11,T_S11,Uu_S11,U_S11,P_S11,T1_A11
2021-05-08T03:00:00Z,00000200,21000000,,,,,,,-000.40,-000.53,-000.75,16.7,24.3,,00.0,0672.7,31.0
2021-05-08T03:01:00Z,00000200,21000000,,,,,,,-000.39,-000.15,0000.28,16.7,24.3,,00.0,0672.7,30.9
2021-05-08T03:02:00Z,00000200,21000000,,,,,,,-000.43,-000.42,-000.51,16.6,24.3,,00.0,0672.7,30.9
2021-05-08T03:03:00Z,00000200,61000000,,,,,,,-000.07,-000.36,-000.35,16.6,24.3,,00.0,0672.7,30.9
2021-05-08T03:04:00Z,00000200,41000000,-000.32,0000.31,-000.17,0000.11,0000.02,0000.29,-000.13,0000.34,0000.23,16.7,23.9,,00.0,0673.6,30.9
2021-05-08T03:05:00Z,00000200,01000000,-000.21,-000.10,0000.08,0000.01,0000.10,0000.06,0000.12,-000.46,-000.33,16.7,23.8,,00.0,0673.7,30.9
2021-05-08T03:06:00Z,00000200,01000000,-000.57,0000.19,-000.21,0000.07,-000.08,0000.15,0000.05,-000.16,0000.16,16.6,23.8,,00.0,0673.7,30.9
2021-05-08T03:07:00Z,00000200,01000000,-000.13,0000.18,-000.11,0000.59,0000.06,0000.04,-000.26,0000.25,-000.09,16.6,23.7,,00.0,0673.7,30.9
2021-05-08T03:08:00Z,00000200,01000000,-000.67,0000.25,0000.17,0000.05,-000.22,-000.11,0000.15,0000.25,0000.13,16.5,23.7,,00.0,0673.7,30.9
2021-05-08T03:09:00Z,00000200,01000000,0000.32,-000.13,-000.09,0000.31,0000.06,0000.40,-000.10,-000.10,-000.17,16.5,23.6,,00.0,0673.7,30.9
2021-05-08T03:10:00Z,00000200,01000000,0000.23,-000.34,0000.12,-000.08,0000.20,0000.11,0000.21,0000.29,0000.31,16.4,23.6,,00.0,0673.7,30.9
2021-05-08T03:11:00Z,00000200,01000000,-000.25,0000.11,-000.18,0000.48,0000.03,-000.05,0000.02,-000.10,0000.12,16.4,23.6,,00.0,0673.7,30.9
2021-05-08T03:12:00Z,00000200,01000000,0000.14,-000.04,-000.12,-000.40,-000.02,0000.11,0000.64,0000.27,0000.15,16.5,23.6,,00.0,0673.7,30.9
2021-05-08T03:13:00Z,00000200,01000000,0000.24,-000.18,-000.09,0000.34,0000.04,0000.13,-000.09,0000.03,-000.07,16.5,23.6,,00.0,0673.7,30.9
2021-05-08T03:14:00Z,00000200,01000000,-000.90,0000.10,-000.05,-000.14,0000.15,-000.07,0000.13,0000.18,-000.16,16.5,23.6,,00.0,0673.7,30.9
2021-05-08T03:15:00Z,00000200,01000000,-000.16,-000.05,0000.05,0000.27,-000.02,-000.00,0000.17,0000.15,0000.35,16.6,23.6,,00.0,0673.6,30.9
2021-05-08T03:16:00Z,00000200,01000000,0000.34,0000.15,0000.03,0000.20,0000.12,0000.04,-000.29,-000.35,0000.06,16.6,23.6,,00.0,0673.6,30.9
2021-05-08T03:17:00Z,00000200,01000000,-000.22,-000.14,-000.24,-000.31,-000.07,-000.08,-000.13,-000.08,-000.15,16.6,23.7,,00.0,0673.6,31.0
2021-05-08T03:18:00Z,00000200,01000000,0000.24,0000.15,-000.17,0000.10,0000.05,-000.03,-000.01,0000.23,0000.12,16.7,23.7,,00.0,0673.6,31.0
2021-05-08T03:19:00Z,00000200,01000000,0000.47,0000.13,-000.06,0000.46,-000.01,0000.04,-000.01,-000.17,-000.19,16.7,23.7,,00.0,0673.6,31.0
2021-05-08T03:20:00Z,00000200,01000000,-000.27,0000.25,0000.01,-000.41,-000.05,0000.13,0000.25,0000.22,0000.20,16.8,23.7,,00.0,0673.6,31.0
2021-05-08T03:21:00Z,00000200,01000000,0000.51,-000.14,0000.08,-000.35,0000.12,0000.20,-000.30,0000.17,-000.02,16.7,23.7,,00.0,0673.6,30.9
2021-05-08T03:22:00Z,00000200,01000000,-000.34,-000.10,-000.11,-000.03,-000.02,-000.03,0000.27,-000.14,-000.34,16.7,23.7,,00.0,0673.6,30.9
2021-05-08T03:23:00Z,00000200,01000000,0000.09,-000.16,-000.38,0000.26,0000.08,-000.08,-000.02,-000.15,0000.00,16.6,23.6,,00.0,0673.6,30.9
2021-05-08T03:24:00Z,00000200,01000000,-000.41,0000.28,0000.08,0000.23,-000.10,0000.03,0000.17,0000.31,0000.18,16.6,23.6,,00.0,0673.6,30.9
2021-05-08T03:25:00Z,00000200,01000000,0000.37,-000.17,-000.15,0000.12,0000.23,0000.08,-000.34,-000.49,-000.23,16.5,23.6,,00.0,0673.6,30.9
2021-05-08T03:26:00Z,00000200,01000000,-000.10,-000.08,0000.15,0000.23,0000.03,0000.24,-000.11,-000.03,0000.19,16.5,23.6,,00.0,0673.6,30.9
2021-05-08T03:27:00Z,00000200,01000000,-000.17,0000.01,0000.02,0000.07,0000.11,0000.03,0000.30,0000.13,0000.12,16.5,23.6,,00.0,0673.6,30.9
2021-05-08T03:28:00Z,00000200,01000000,0000.45,-000.11,-000.08,0000.05,0000.06,0000.16,0000.86,0001.10,0000.76,16.6,23.6,,00.0,0673.6,30.9
2021-05-08T03:29:00Z,00000200,01000000,0000.27,-000.03,-000.09,0000.49,-000.09,-000.09,-000.29,-000.22,-000.29,16.6,23.6,,00.0,0673.6,30.9
2021-05-08T03:30:00Z,00000200,01000000,0000.33,0000.27,0000.19,0000.71,-000.00,0000.05,-000.28,-000.12,0000.04,16.6,23.6,,00.0,0673.5,30.9
2021-05-08T03:31:00Z,00000200,01000000,-000.22,0000.40,0000.04,0000.17,-000.05,-000.38,0000.04,-000.08,-000.20,16.7,23.6,,00.0,0673.5,31.0
2021-05-08T03:32:00Z,00000200,01000000,-000.22,0000.15,-000.15,0000.01,-000.18,0000.16,0000.23,0000.08,-000.00,16.7,23.6,,00.0,0673.5,31.0
2021-05-08T03:33:00Z,00000200,01000000,0000.02,0000.03,-000.34,0000.55,-000.08,-000.03,0000.07,0000.00,0000.18,16.7,23.7,,00.0,0673.5,31.0
2021-05-08T03:34:00Z,00000200,01000000,0000.38,0000.09,0000.16,0000.44,0000.15,0000.05,-000.08,-000.22,-000.33,16.8,23.7,,00.0,0673.5,31.0
2021-05-08T03:35:00Z,00000200,01000000,-000.17,0000.05,-000.05,-000.37,0000.09,0000.06,-000.02,0000.33,0000.27,16.8,23.7,,00.0,0673.5,31.0
2021-05-08T03:36:00Z,00000200,01000000,0000.46,-000.05,-000.09,0000.53,-000.01,0000.05,0000.25,-000.17,0000.08,16.9,23.7,,00.0,0673.5,31.0
2021-05-08T03:37:00Z,00000200,01000000,-000.13,0000.18,0000.01,-000.10,0000.07,0000.16,-000.03,0000.14,0000.03,16.9,23.7,,00.0,0673.5,31.0
2021-05-08T03:38:00Z,00000200,01000000,0000.68,-000.00,-000.27,0000.13,-000.01,0000.14,0000.29,0000.38,0000.31,16.9,23.8,,00.0,0673.5,31.0
2021-05-08T03:39:00Z,00000200,01000000,0000.23,-000.11,-000.08,0000.08,0000.11,0000.21,-000.03,0000.21,-000.35,16.9,23.8,,00.0,0673.5,31.0
2021-05-08T03:40:00Z,00000200,01000000,-000.16,0000.14,0000.02,0000.04,-000.04,-000.09,0000.37,0000.01,0000.28,17.0,23.8,,00.0,0673.5,31.0
2021-05-08T03:41:00Z,00000200,01000000,0000.21,0000.04,-000.15,0000.10,0000.03,0000.13,-000.27,-000.05,0000.05,16.9,23.8,,00.0,0673.5,31.0
2021-05-08T03:42:00Z,00000200,01000000,0000.26,0000.13,0000.04,0000.15,-000.14,0000.03,0000.42,0000.20,0000.17,16.9,23.8,,00.0,0673.5,30.9
2021-05-08T03:43:00Z,00000200,01000000,0000.04,-000.02,-000.03,-000.24,-000.18,-000.00,0000.10,0000.07,0000.12,16.8,23.7,,00.0,0673.5,30.9
2021-05-08T03:44:00Z,00000200,01000000,-000.07,0000.20,0000.17,0000.56,-000.10,-000.06,-000.25,0000.18,0000.05,16.8,23.7,,00.0,0673.4,30.9
2021-05-08T03:45:00Z,00000200,01000000,0000.13,0000.25,0000.06,0000.58,0000.08,-000.03,0000.42,0000.16,0000.16,16.7,23.7,,00.0,0673.4,30.9
2021-05-08T03:46:00Z,00000200,01000000,0000.02,0000.06,-000.06,-000.12,-000.16,0000.10,-000.16,-000.21,-000.12,16.7,23.6,,00.0,0673.4,30.9
2021-05-08T03:47:00Z,00000200,01000000,0000.40,0000.04,0000.26,-000.00,0000.22,0000.07,0000.42,0000.13,-000.04,16.6,23.6,,00.0,0673.4,30.9
2021-05-08T03:48:00Z,00000200,01000000,-000.04,-000.01,0000.09,0000.21,-000.12,-000.08,-000.32,-000.31,0000.20,16.5,23.5,,00.0,0673.4,30.9
2021-05-08T03:49:00Z,00000200,01000000,0000.29,-000.06,0000.26,0000.12,0000.07,-000.08,0000.41,0000.56,-000.06,16.5,23.5,,00.0,0673.4,30.9
2021-05-08T03:50:00Z,00000200,01000000,-000.23,0000.19,-000.04,0000.50,-000.12,-000.07,0000.23,-000.21,0000.21,16.4,23.5,,00.0,0673.4,30.8
2021-05-08T03:51:00Z,00000200,01000000,0000.25,0000.07,-000.08,0000.06,-000.28,0000.25,-000.32,-000.18,-000.29,16.4,23.4,,00.0,0673.4,30.8
2021-05-08T03:52:00Z,00000200,01000000,0000.42,0000.18,-000.09,0000.26,-000.05,0000.09,-000.16,0000.04,0000.01,16.4,23.4,,00.0,0673.4,30.8
2021-05-08T03:53:00Z,00000200,01000000,-000.15,0000.08,-000.12,0000.19,-000.08,-000.05,0000.31,0000.15,0000.29,16.3,23.3,,00.0,0673.4,30.8
2021-05-08T03:54:00Z,00000200,01000000,-000.40,0000.16,0000.04,0000.10,0000.07,-000.20,-000.16,-000.25,-000.22,16.2,23.3,,00.0,0673.4,30.8
2021-05-08T03:55:00Z,00000200,01000000,-000.33,-000.03,-000.02,0000.35,0000.10,0000.25,-000.58,0000.21,-000.15,16.2,23.3,,00.0,0673.4,30.8
2021-05-08T03:56:00Z,00000200,01000000,-000.17,-000.03,-000.17,0000.09,-000.07,-000.01,-000.23,-000.78,-000.14,16.2,23.2,,00.0,0673.3,30.8
2021-05-08T03:57:00Z,00000200,41000000,,,,,,,0000.98,0000.75,0000.36,16.3,23.3,,00.0,0673.3,30.8
2021-05-08T03:58:00Z,00000200,61000000,,,,,,,-000.63,-000.18,-000.36,15.9,23.5,,00.0,0672.3,30.9
2021-05-08T03:59:00Z,00000200,21000000,,,,,,,-000.28,-000.06,0000.05,15.9,23.5,,00.0,0672.3,30.9
